Home   Weather   Moncton   Past weeks

Flag for Canada Past Weather in Moncton, New Brunswick, Canada — Yesterday and Last 2 Weeks

Now
16 °F

Passing clouds.


Feels Like: 8 °F
Forecast: 13 / 29 °F
Wind: 5 mph from West

Location: Moncton

Current Time: Dec 6, 2016 at 8:16:23 am

Latest Report: Dec 6, 2016 at 7:00 am


Visibility: 15 mi

Pressure: 29.97 "Hg

Humidity: 86%

Dew Point: 12 °F

Location of MonctonLocation

Past Weather in Moncton — Graph

°F

Moncton Temperature Yesterday

Maximum temperature yesterday: 25 °F (at 2:00 pm)
Minimum temperature yesterday: 12 °F (at 6:00 am)
Average temperature yesterday: 18 °F

High & Low Weather Summary for the Past Weeks

 TemperatureHumidityPressure
High48 °F (Nov 21, 11:00 am)100% (Nov 21, 7:00 am)30.39 "Hg (Nov 21, 7:00 am)
Low12 °F (Dec 5, 6:00 am)62% (Nov 21, 1:00 pm)29.28 "Hg (Dec 1, 10:00 pm)
Average32 °F88%29.88 "Hg
* Reported Nov 21 7:00 am — Dec 6 7:00 am, Moncton, Weather by CustomWeather, © 2016

Note: Actual official high and low records may vary slightly from our data, if they occured in-between our weather recording intervals... More about our weather records

Advertising

Moncton Weather History for the Previous 24 Hours

Scroll right to see more
 ConditionsComfort  
Time TempWeatherWind HumidityBarometerVisibility
7:00 am
Tue, Dec 6
16 °FPassing clouds.5 mph86%29.97 "Hg15 mi
6:00 am14 °FClear.6 mph92%29.95 "Hg15 mi
5:00 am16 °FPassing clouds.7 mph93%29.94 "Hg15 mi
4:00 am18 °FPassing clouds.3 mph93%29.94 "Hg15 mi
3:00 am18 °FPassing clouds.5 mph93%29.93 "Hg15 mi
2:00 am19 °FPassing clouds.3 mph93%29.93 "Hg15 mi
1:00 am19 °FOvercast.2 mph93%29.93 "Hg15 mi
12:00 am19 °FPassing clouds.3 mph86%29.93 "Hg15 mi
11:00 pm
Mon, Dec 5
18 °FPartly cloudy.6 mph93%29.94 "Hg15 mi
10:00 pm19 °FPartly cloudy.2 mph93%29.94 "Hg15 mi
9:00 pm19 °FPassing clouds.5 mph86%29.95 "Hg15 mi
8:00 pm18 °FPassing clouds.3 mph86%29.95 "Hg15 mi
7:00 pm21 °FPartly cloudy.No wind86%29.96 "Hg15 mi
6:00 pm23 °FPartly cloudy.2 mph80%29.97 "Hg15 mi
5:00 pm23 °FMostly cloudy.5 mph80%29.98 "Hg15 mi
4:00 pm23 °FPartly sunny.5 mph86%29.98 "Hg15 mi
3:00 pm25 °FPartly sunny.5 mph80%29.98 "Hg15 mi
2:00 pm25 °FPartly sunny.2 mph80%29.99 "Hg15 mi
1:00 pm23 °FPartly sunny.2 mph80%29.99 "Hg15 mi
12:00 pm21 °FPartly sunny.5 mph80%30.02 "Hg15 mi
11:00 am19 °FPartly sunny.2 mph79%30.04 "Hg15 mi
10:00 am16 °FScattered clouds.5 mph86%30.07 "Hg15 mi
9:00 am14 °FPassing clouds.7 mph92%30.07 "Hg15 mi
8:00 am12 °FPassing clouds.8 mph92%30.06 "Hg15 mi
Weather by CustomWeather, © 2016

See weather overviewHow to use our weather pages